GFSMA_sfc_temp_021.txt.gz
Temp
65 63 63 63 64 64 64 63 62 62 62 63 64 65 65 65 66 64 64 72 73 74 76 78 78 76 76 76 74 75 74 74 74 74 73 74 74 74 75 74 74 73 73
64 63 63 63 63 63 63 62 62 61 62 62 63 64 65 66 66 67 65 66 72 73 76 78 78 77 76 76 75 74 74 73 74 73 73 73 73 74 74 74 74 73 72
65 65 65 65 63 63 63 62 62 62 61 62 62 63 63 65 64 66 65 65 67 74 74 75 76 77 77 76 76 75 74 73 73 73 73 73 73 72 73 73 74 73 71
67 66 67 65 64 63 62 61 61 61 63 60 60 60 61 62 63 65 65 65 66 67 73 75 75 76 77 77 77 77 75 73 73 73 73 72 73 71 72 73 73 72 71
68 68 64 64 64 63 62 62 61 60 59 59 60 60 60 60 61 65 65 64 65 65 65 72 74 74 75 76 77 78 76 73 72 73 72 73 72 72 71 72 72 71 70
69 65 65 64 63 62 62 61 61 60 60 58 60 60 59 60 60 60 61 64 63 63 64 65 65 68 73 74 76 76 76 75 73 72 71 72 71 72 71 70 71 70 70
67 67 64 63 63 62 62 61 60 59 59 60 58 56 57 59 60 60 61 61 62 64 63 64 63 64 66 73 73 74 76 77 74 73 71 68 71 72 72 71 70 69 70
68 66 64 63 62 61 61 60 59 57 58 58 55 54 52 55 58 60 61 60 60 61 63 65 63 63 63 64 67 72 74 75 76 73 70 70 71 72 72 71 70 69 71
67 66 64 63 62 61 60 59 58 57 56 55 56 54 50 50 54 58 61 61 60 59 60 62 64 64 64 63 67 70 72 72 75 74 70 70 71 72 71 69 68 70 70
66 65 64 62 61 60 59 59 59 58 56 55 55 56 55 55 53 53 57 60 60 59 59 61 61 63 64 63 67 68 69 70 73 73 71 71 72 70 68 68 67 65 68
64 65 65 63 60 59 59 59 59 58 57 56 55 54 54 55 56 55 53 56 58 58 58 59 60 61 63 63 63 65 67 68 69 69 70 71 70 69 68 66 67 68 70
62 65 63 61 60 59 60 60 59 58 58 56 55 55 55 54 55 56 54 53 54 56 59 59 58 59 61 62 65 66 65 65 65 66 68 69 69 69 70 70 70 69 70
59 59 60 59 59 60 60 60 59 58 58 57 56 55 56 55 57 58 55 52 52 58 58 61 62 60 61 62 64 67 66 63 63 64 65 66 67 68 69 70 70 71 70
59 60 60 60 60 61 61 60 60 59 58 58 57 56 56 56 57 58 57 54 54 57 57 56 60 63 62 64 65 66 64 63 62 62 62 63 65 66 67 68 68 68 68
60 60 60 60 61 61 61 60 60 59 59 58 58 57 56 56 58 58 57 56 55 53 52 58 59 63 64 64 66 65 64 62 63 61 61 62 62 63 63 64 64 65 65
60 60 60 60 61 61 62 60 60 59 59 58 59 59 57 57 57 57 57 57 56 54 54 58 59 61 63 63 65 64 63 62 61 61 61 61 60 60 60 61 61 62 63
60 61 61 61 61 62 62 60 60 60 60 59 60 60 60 59 58 58 58 57 56 56 55 57 59 62 61 60 60 61 62 61 60 60 60 59 57 58 58 59 59 59 60
60 61 62 62 65 63 61 60 61 61 60 60 60 60 60 60 57 57 56 57 57 57 57 57 58 58 58 58 58 58 59 60 60 60 59 58 56 56 56 56 56 56 57
60 61 63 64 63 62 61 62 61 60 60 60 60 60 60 59 58 60 59 58 57 60 61 58 56 58 57 57 57 58 57 57 59 60 57 56 55 55 55 55 55 54 53
61 61 64 63 62 62 62 63 62 61 59 59 60 61 60 61 60 59 59 59 60 59 59 57 56 56 56 56 56 55 54 57 56 59 58 56 56 55 55 54 55 54 52
62 66 63 60 60 60 59 60 61 60 59 59 61 61 60 61 60 59 59 59 60 59 59 56 55 55 55 55 55 56 55 55 56 56 55 56 55 54 54 55 57 55 51
65 65 62 60 58 59 49 49 58 60 61 60 60 60 59 58 56 55 56 56 60 60 58 57 55 55 55 56 56 56 55 54 52 56 55 52 55 51 51 51 52 50 49
64 62 58 58 56 56 46 50 52 61 60 60 60 60 59 58 58 58 53 54 53 54 58 61 56 57 56 58 58 55 56 55 54 54 55 50 52 49 50 49 49 48 48
61 59 56 56 56 55 45 50 53 59 61 60 60 60 59 59 59 60 60 59 60 59 60 61 61 60 61 60 60 60 56 54 54 53 52 49 49 45 44 44 49 48 47
57 56 56 56 57 56 45 50 57 60 61 60 61 61 61 60 49 50 60 58 57 56 52 50 50 50 48 50 55 59 54 54 52 50 48 46 43 42 42 43 44 49 47
58 58 56 57 53 56 45 47 56 61 60 59 59 58 51 56 46 49 60 59 56 56 58 58 56 52 53 51 52 57 58 53 51 49 51 45 42 43 42 42 43 43 44

GFSMA_sfc_temp_024.txt.gz
Temp
66 67 66 65 65 67 67 67 66 66 66 66 67 67 67 68 68 69 69 70 72 73 75 77 78 77 78 76 75 75 75 74 74 74 73 74 74 75 75 75 74 74 73
66 65 65 64 65 65 66 66 65 65 65 66 66 66 67 68 68 69 69 69 71 73 74 76 77 78 78 77 76 75 74 73 74 73 73 74 73 74 75 75 74 73 72
65 65 64 63 64 65 65 64 64 64 64 65 64 65 66 67 67 68 68 68 70 72 73 75 76 76 76 76 77 76 74 74 73 73 72 72 73 73 74 75 74 73 71
66 65 64 63 64 64 64 64 63 63 63 64 63 63 64 66 67 67 68 69 69 69 73 75 75 75 76 77 77 77 75 73 73 72 72 71 70 72 73 74 73 72 70
67 66 65 65 66 65 64 63 63 64 63 62 62 63 63 63 65 68 67 67 68 69 70 74 74 74 75 76 77 77 76 74 72 72 73 73 72 72 71 72 72 71 70
68 66 65 65 65 64 63 63 64 63 63 62 62 62 62 63 63 64 65 68 68 68 68 67 72 74 74 75 76 77 76 75 73 73 73 72 72 72 72 72 72 71 70
68 66 65 65 64 64 64 64 63 62 61 62 60 60 60 61 62 62 64 65 66 67 66 65 68 70 72 73 73 74 76 75 74 73 72 71 71 72 72 71 71 69 69
67 67 65 64 64 63 63 63 62 60 61 61 59 57 56 59 60 62 63 63 65 65 67 67 67 68 68 70 72 72 74 74 76 74 70 71 71 72 72 71 70 69 68
67 67 66 65 64 63 62 61 61 60 59 58 59 58 54 54 56 60 62 63 63 63 65 66 67 68 68 68 70 72 72 72 74 74 71 69 71 72 72 70 68 68 68
67 66 66 65 64 63 62 61 61 60 59 58 58 58 59 59 56 56 58 60 62 62 63 64 66 67 68 68 69 69 70 71 73 73 72 72 72 72 70 69 68 66 65
66 66 65 64 63 62 62 61 60 60 59 59 58 57 58 58 59 58 55 56 59 60 62 63 65 65 67 67 67 68 67 68 69 70 70 72 72 70 69 69 67 66 66
63 64 65 64 62 62 61 61 61 60 60 59 58 58 58 57 57 58 56 54 56 59 61 63 63 64 65 67 68 66 65 65 65 66 67 68 68 68 68 68 67 67 67
61 62 62 62 61 62 62 62 61 61 60 59 59 58 59 59 60 60 57 55 55 59 60 63 64 64 65 66 68 67 66 64 63 63 65 66 67 67 66 67 68 68 69
61 62 63 62 62 63 63 62 61 61 61 60 60 59 59 59 60 59 57 56 56 58 59 60 62 65 65 66 67 66 67 62 62 62 63 63 64 65 67 68 68 67 68
62 61 62 61 62 63 63 62 61 62 61 61 60 60 59 59 60 60 60 61 60 55 56 60 61 65 66 67 67 67 65 62 62 61 62 62 63 64 64 64 64 65 65
62 61 61 62 63 63 63 63 62 62 61 61 61 60 60 60 60 61 60 60 60 59 55 60 61 63 65 65 66 66 65 62 60 60 61 61 60 60 61 61 62 63 63
61 62 63 63 63 63 63 62 62 62 62 61 61 61 62 61 60 60 60 60 60 60 58 59 61 62 60 60 62 63 63 62 61 60 60 60 59 59 59 59 60 60 61
62 63 64 65 65 64 64 63 63 63 62 62 62 62 62 62 61 61 60 60 60 60 62 58 58 58 58 60 59 59 60 61 60 60 60 58 57 56 56 56 57 57 57
62 64 64 65 65 64 64 63 62 63 62 62 63 62 63 61 60 60 60 59 60 61 63 59 56 57 57 58 58 58 58 58 59 60 58 57 56 55 55 55 55 54 53
62 64 64 64 64 63 63 63 63 62 61 62 63 63 63 62 61 61 60 60 61 60 59 57 55 55 56 57 57 56 56 58 57 58 57 56 56 55 54 54 55 54 52
63 65 64 62 62 62 60 60 63 62 61 61 62 62 62 62 60 60 62 60 61 60 58 56 55 54 54 54 54 55 55 56 56 57 56 56 56 55 56 56 58 55 52
63 65 63 62 61 61 47 51 58 62 61 61 60 60 60 58 57 54 56 57 61 60 58 56 55 54 54 55 55 55 54 53 52 57 54 51 56 53 56 60 52 51 50
64 62 60 61 60 59 45 50 53 61 61 61 60 60 59 58 58 58 53 53 53 55 58 60 56 57 56 56 56 55 55 55 53 54 56 50 54 54 55 54 49 49 49
62 61 59 59 60 56 46 50 52 62 61 60 60 59 58 58 58 60 61 60 60 60 60 61 60 59 60 59 58 59 56 56 55 55 58 50 52 52 53 54 49 48 47
61 60 59 59 61 58 47 49 57 61 60 60 60 60 60 59 48 50 60 58 57 55 51 49 49 48 47 49 54 59 58 57 54 55 55 55 53 53 54 55 55 49 47
60 59 58 60 54 58 46 48 57 61 59 58 59 58 51 55 46 49 60 58 56 56 58 57 55 52 53 51 52 60 61 58 56 56 57 56 53 55 55 55 55 55 55

GFSMA_sfc_temp_030.txt.gz
Temp
85 85 86 87 86 89 83 82 84 85 84 84 86 85 85 86 86 87 88 75 74 74 75 77 77 77 78 77 76 76 75 75 75 74 73 72 72 74 75 75 74 74 74
86 86 85 85 87 86 84 84 83 85 82 86 85 84 84 85 86 85 88 81 74 74 75 76 77 77 78 78 77 76 75 75 74 74 73 72 74 75 74 75 74 74 73
84 83 85 85 86 85 82 83 84 80 84 85 83 84 82 81 84 84 85 84 79 73 74 75 76 77 78 78 77 76 75 75 74 74 73 70 72 73 72 73 73 74 73
83 82 86 85 86 85 84 85 81 83 83 83 78 75 78 82 84 82 81 84 81 84 75 75 75 76 77 78 78 77 76 75 74 73 73 73 72 71 70 70 70 73 72
82 83 84 85 83 85 84 82 82 81 80 79 80 75 78 84 83 84 82 81 82 83 84 76 75 75 76 77 78 77 76 74 73 73 73 73 73 71 71 70 70 73 72
82 80 83 83 83 84 83 82 79 81 76 77 79 81 81 81 82 82 81 80 80 80 83 83 82 82 75 76 77 77 76 75 74 73 73 72 71 72 71 70 71 72 70
80 79 83 82 81 82 79 78 77 77 77 76 77 79 81 81 78 81 82 77 78 81 82 80 82 79 81 75 75 76 77 76 75 74 73 71 72 71 71 72 71 70 69
80 80 80 81 79 81 77 75 77 78 75 74 76 74 73 76 79 78 79 77 77 79 80 79 81 79 77 84 81 74 76 76 75 75 72 71 71 71 71 72 71 70 69
80 79 79 81 79 80 77 77 76 77 72 73 73 74 73 70 72 76 73 74 74 73 75 77 78 79 79 84 80 77 73 74 76 75 73 71 71 72 72 71 69 68 67
77 76 76 80 78 81 80 79 77 80 76 71 73 74 76 75 71 65 73 73 72 72 73 75 76 77 72 75 81 77 71 72 75 74 73 72 73 73 72 69 67 67 65
76 78 80 78 78 83 79 79 78 77 75 78 79 76 73 74 73 69 64 66 68 71 72 73 75 73 69 72 84 77 70 70 71 71 71 72 73 72 70 68 68 67 67
75 79 80 80 80 81 78 79 78 76 76 77 79 77 71 71 73 67 65 66 67 70 75 77 72 74 73 82 81 67 68 67 67 67 68 70 71 69 69 70 70 70 69
78 77 80 79 78 78 79 79 77 77 76 76 74 76 77 77 77 69 66 67 68 66 64 67 72 74 81 82 82 74 68 66 64 63 65 66 68 68 68 70 69 69 69
81 79 79 79 80 80 79 77 78 78 77 76 73 73 74 75 79 69 68 66 62 59 63 65 69 75 78 80 76 68 75 63 62 62 62 64 65 66 66 66 66 67 67
81 80 80 79 79 79 78 76 79 76 77 73 72 72 71 72 79 74 69 69 60 57 60 64 68 74 75 77 74 80 78 61 62 61 61 62 63 63 63 64 64 65 66
80 79 79 78 78 78 78 76 78 76 73 72 75 73 72 73 77 64 74 66 63 63 59 68 70 74 75 75 74 78 75 64 61 61 62 61 61 61 61 61 62 62 63
79 79 79 78 78 78 77 75 75 75 73 73 75 74 73 75 76 77 77 72 68 68 65 67 70 69 70 71 74 72 70 68 64 61 61 60 58 58 59 60 60 61 62
80 80 80 80 80 79 77 77 76 77 73 70 75 75 74 76 75 74 72 72 72 72 70 66 62 62 64 69 67 66 65 65 65 61 59 58 57 57 57 57 58 58 58
79 80 80 80 80 80 78 77 76 74 68 72 74 75 75 74 73 73 72 72 74 72 71 67 59 60 60 63 62 62 62 61 61 60 57 56 55 56 56 56 56 55 55
79 79 80 81 80 79 79 77 73 74 73 74 75 77 77 76 74 73 73 73 72 70 70 63 58 59 58 59 59 57 57 59 58 59 57 58 58 55 55 55 56 56 53
80 81 80 79 79 78 79 75 75 74 68 71 73 77 77 71 63 68 74 72 70 68 66 61 58 58 57 57 56 58 57 57 57 59 60 59 60 61 59 57 59 56 53
79 80 79 79 76 79 50 50 60 69 72 72 72 73 72 65 62 57 57 60 66 70 66 63 58 56 56 56 57 57 57 55 54 59 56 55 61 58 61 63 55 52 51
76 76 77 77 76 74 48 48 53 67 67 68 67 67 71 69 66 68 55 54 55 55 62 67 59 60 59 60 59 58 59 58 57 57 61 52 59 58 61 60 51 50 50
74 73 75 76 75 69 49 48 52 67 64 64 66 68 70 67 67 69 68 67 68 69 68 69 64 62 61 61 64 62 60 56 58 59 60 51 61 64 69 68 51 50 49
73 74 76 75 74 69 48 48 58 63 61 60 62 66 69 66 50 52 70 64 61 59 52 53 52 49 47 49 56 64 57 56 54 55 63 58 58 63 69 69 66 50 48
74 79 75 74 60 68 47 49 58 63 61 61 61 64 52 58 45 49 66 63 58 59 60 57 55 51 54 52 53 61 60 57 59 58 65 64 66 69 67 73 73 66 64

GFSMA_sfc_temp_033.txt.gz
Temp
84 86 87 89 87 88 84 86 86 85 85 85 86 86 87 88 88 88 85 76 75 75 76 77 77 78 78 76 76 77 76 75 75 74 73 73 71 74 73 70 71 73 74
86 88 86 88 90 88 89 87 87 87 85 85 84 85 86 87 86 83 82 74 75 75 75 76 77 77 78 78 76 77 76 75 75 74 73 73 73 73 73 72 73 73 73
85 85 87 87 89 88 85 86 86 86 86 85 85 87 85 82 82 83 78 86 77 74 75 75 76 77 77 78 78 77 76 75 75 74 73 72 73 74 73 72 73 74 73
85 85 87 87 88 86 87 85 85 85 84 83 84 84 82 81 82 81 78 86 76 78 75 75 75 76 77 78 78 77 76 75 75 74 73 73 73 72 73 73 73 72 73
86 85 87 88 85 87 87 83 85 84 82 82 84 81 79 80 81 79 82 79 83 83 73 75 75 75 75 77 78 78 76 75 74 74 73 73 73 72 72 72 71 70 71
87 83 86 84 86 86 85 85 81 83 81 82 82 78 77 78 80 84 78 79 77 81 81 73 71 80 75 76 77 77 77 76 75 74 73 73 72 72 72 72 71 72 70
86 82 84 84 84 83 82 81 81 79 77 79 79 73 77 82 79 82 81 74 80 81 79 82 74 80 79 75 75 76 77 77 75 75 73 71 71 72 71 71 72 70 69
85 83 82 84 81 84 81 80 78 77 79 78 76 75 74 79 81 74 81 75 78 76 76 76 78 81 76 79 78 75 77 77 76 75 72 71 71 72 72 71 71 69 69
82 81 80 83 82 82 82 79 77 76 77 75 76 77 73 71 72 78 78 79 76 74 75 75 79 78 70 67 75 76 74 75 74 72 73 71 71 71 72 71 70 70 69
79 80 78 78 78 82 81 78 80 79 75 73 77 78 78 77 71 68 75 74 74 72 73 73 74 78 73 67 75 77 71 73 75 74 73 73 72 72 72 71 70 69 69
78 78 78 77 77 82 80 79 79 76 76 79 80 76 76 77 75 71 65 68 69 71 72 72 72 77 78 78 78 72 70 70 72 72 72 72 72 72 72 70 69 68 67
76 75 78 77 80 80 79 80 78 77 77 78 80 78 77 75 72 68 68 66 66 68 71 67 72 74 77 75 70 68 68 68 68 68 69 69 71 71 69 68 68 68 68
73 74 78 79 80 79 80 80 79 78 77 78 76 79 78 71 74 69 70 65 66 68 69 67 73 73 72 70 68 72 69 67 65 64 65 67 68 68 68 68 69 69 69
78 79 80 80 81 81 82 80 80 79 78 77 76 75 77 76 70 74 72 67 64 67 69 70 71 70 66 66 71 72 73 65 62 62 62 64 66 66 66 67 68 68 68
81 80 79 80 81 82 81 78 80 77 78 76 75 74 74 75 69 76 75 73 68 65 61 67 66 69 72 76 73 80 77 62 62 61 61 62 62 63 63 64 64 65 65
81 80 80 80 81 81 80 77 79 78 77 73 72 73 73 74 72 78 76 75 71 66 64 64 63 70 72 74 73 77 74 65 61 61 61 61 60 60 60 61 62 62 64
81 82 81 80 80 79 79 77 78 78 76 73 72 74 74 73 76 76 76 69 64 66 64 62 67 71 70 72 74 72 72 72 65 60 60 60 58 58 59 60 61 61 62
82 82 82 81 81 81 79 78 77 78 75 72 72 74 75 75 75 73 73 69 66 70 64 64 66 66 69 71 68 66 66 68 66 60 59 58 57 57 57 57 58 58 58
81 82 82 81 82 82 80 79 77 77 75 74 70 72 77 74 73 73 75 71 70 69 68 69 61 62 64 66 63 63 63 62 61 60 58 57 56 56 56 57 56 56 55
81 81 82 83 83 82 80 78 77 75 73 71 73 73 78 75 74 74 73 72 71 69 68 65 60 60 60 61 61 59 58 59 59 59 58 58 59 56 55 56 57 57 54
82 83 82 79 80 80 78 76 76 73 73 70 71 75 77 72 66 68 74 71 71 68 67 60 59 58 58 58 58 59 57 57 57 58 58 61 61 63 62 58 59 57 53
79 77 75 78 78 76 50 52 63 73 72 69 72 73 72 66 62 56 56 59 67 68 65 62 60 57 58 58 58 57 57 56 54 59 59 58 61 64 66 62 56 52 51
74 74 75 79 75 70 50 51 55 70 71 69 71 71 75 73 68 71 56 56 56 57 64 67 61 60 58 59 59 58 59 60 56 57 59 55 61 60 58 57 52 51 50
75 75 77 76 73 66 50 50 53 69 68 68 69 70 72 71 70 69 71 70 69 69 69 68 66 64 63 62 62 62 60 58 59 61 61 54 59 58 60 63 52 51 50
74 74 76 75 73 67 49 51 61 65 62 63 68 69 69 69 52 52 69 66 64 61 53 51 50 49 48 51 58 63 58 57 54 56 61 60 60 62 64 68 64 51 49
76 77 75 74 60 68 48 50 58 62 61 60 62 64 49 63 47 50 64 63 59 59 61 60 59 56 56 53 53 64 61 57 56 54 61 64 64 64 61 70 70 64 62

GFSMA_sfc_temp_036.txt.gz
Temp
75 77 78 79 77 78 75 76 76 76 76 76 79 80 80 80 80 78 74 76 76 76 77 77 77 77 77 76 76 76 75 75 74 73 73 73 72 73 74 73 72 72 72
76 78 77 78 78 78 78 77 77 77 77 78 77 78 78 79 79 78 77 73 75 75 76 77 77 78 78 77 76 76 75 74 74 74 72 72 72 73 74 73 71 71 72
77 77 78 78 79 78 76 76 76 77 78 78 77 77 77 78 77 77 76 73 73 74 74 75 76 76 77 78 78 76 75 74 75 74 73 73 73 73 73 74 72 72 72
78 78 79 78 79 78 78 76 76 75 75 76 74 75 75 75 76 75 75 75 71 73 74 74 75 76 76 77 78 77 76 74 74 74 73 73 72 73 73 73 72 72 72
80 79 80 79 77 78 77 77 74 74 73 74 74 74 74 73 73 74 75 74 75 74 74 74 74 74 75 76 78 77 76 75 74 73 73 72 73 73 73 72 72 72 73
81 79 80 78 78 78 77 75 73 74 74 73 76 74 72 71 71 73 72 75 75 73 73 71 70 73 74 75 76 77 77 75 74 74 73 72 72 73 72 72 72 72 72
82 78 79 78 78 76 76 74 73 72 72 73 71 70 70 71 71 73 73 72 72 73 72 71 69 67 73 74 74 76 77 76 75 74 72 71 72 72 71 72 72 71 69
81 80 78 77 76 77 74 74 72 71 72 72 68 67 64 66 70 71 72 70 71 71 72 72 70 70 67 70 70 74 76 77 76 74 72 71 72 72 72 71 71 70 69
81 79 77 77 76 76 75 73 73 71 69 71 72 67 63 62 64 68 69 70 70 68 69 69 70 68 67 65 70 72 74 74 75 75 72 71 71 72 71 71 70 69 69
80 79 77 77 76 77 74 74 74 72 70 68 68 70 69 67 62 60 65 67 68 68 68 67 68 67 65 63 67 67 71 72 74 73 73 72 72 72 72 71 70 69 69
78 78 76 76 75 76 74 74 72 71 72 69 67 69 68 67 67 63 60 62 65 65 67 66 67 67 65 64 63 65 68 69 71 71 72 72 72 72 72 71 70 69 69
74 74 76 74 73 73 74 74 72 72 71 69 67 69 68 66 65 63 61 61 61 64 65 66 66 66 67 66 65 66 68 68 68 67 69 70 71 71 71 71 69 69 69
72 71 72 73 72 74 75 74 72 71 70 69 69 69 70 68 67 65 62 60 60 62 63 64 65 65 67 65 65 68 68 66 65 64 65 66 68 69 69 69 69 69 69
72 72 73 74 75 75 75 73 71 70 70 71 71 69 67 68 66 65 63 61 58 60 63 62 65 64 63 64 67 67 67 65 63 62 62 63 65 66 66 66 67 68 68
74 72 75 75 75 75 74 72 70 71 71 71 70 69 68 69 67 66 65 64 61 56 57 61 62 65 63 64 65 66 67 63 63 61 61 62 63 63 64 64 64 65 65
76 75 75 75 74 75 74 73 72 72 71 69 69 68 68 66 68 67 66 65 64 61 57 61 62 64 65 64 67 67 65 63 60 60 61 61 61 60 61 61 62 63 64
75 75 76 75 75 74 74 71 72 71 71 68 68 67 68 68 66 66 67 65 62 63 59 61 63 64 64 65 65 64 67 63 62 60 61 60 58 58 59 60 60 61 62
76 77 78 77 77 76 74 73 72 73 70 69 68 67 68 69 67 66 65 64 63 64 61 59 62 63 63 64 65 65 64 65 62 60 59 58 57 57 57 58 58 59 58
77 78 78 77 77 75 73 73 73 72 71 69 69 67 69 68 66 66 66 64 63 64 63 62 60 61 63 63 62 62 61 60 60 60 58 57 56 56 57 57 57 56 55
76 76 77 78 77 74 74 74 73 70 70 68 69 68 69 68 67 67 66 66 65 63 63 61 60 59 60 61 61 59 57 59 58 60 59 58 57 56 56 56 57 57 55
77 78 76 73 73 68 70 70 72 70 67 65 67 68 68 67 64 65 67 66 65 63 62 60 59 58 58 58 58 58 56 57 58 59 58 59 59 59 57 57 59 57 54
74 72 71 71 70 68 49 52 62 68 69 68 65 66 63 59 57 57 57 60 63 63 61 61 58 57 57 58 58 57 57 56 54 59 58 58 61 60 60 60 56 53 52
70 70 70 69 67 63 49 51 55 68 67 67 67 66 67 66 65 64 54 56 56 56 61 64 59 58 57 58 58 57 59 58 56 57 58 56 59 58 58 57 52 51 50
70 69 69 68 66 60 49 51 55 67 67 68 68 68 67 67 67 67 67 66 65 64 64 66 62 61 61 61 62 62 60 57 58 59 59 54 57 56 55 57 52 51 50
68 69 70 69 65 62 49 52 60 63 64 64 63 63 67 65 52 51 66 62 60 57 52 51 52 50 48 50 57 61 58 56 54 55 58 56 56 56 57 58 54 51 50
70 69 68 68 58 63 48 50 57 60 59 59 62 62 51 57 49 52 63 61 58 58 59 58 56 52 54 53 53 61 61 57 56 54 58 56 57 58 54 61 58 51 51